Weather History for Monarch Pass, CO

Change the Weather History Date:

Monday, October 8, 2012

  Actual Average (KGUC) Record (KGUC)
Temperature  
Mean Temperature 32 °F -  
Max Temperature 42 °F 60 °F 71 °F (1996)
Min Temperature 23 °F 25 °F 15 °F (2012)
Degree Days  
Heating Degree Days 32    
Moisture  
Dew Point -2 °F    
Average Humidity 24    
Maximum Humidity 36    
Minimum Humidity 13    
Precipitation  
Precipitation 0.00 in - - ()
Sea Level Pressure  
Sea Level Pressure 30.37 in    
Wind  
Wind Speed 36 mph (West)    
Max Wind Speed 41 mph    
Max Gust Speed 55 mph    
Averages and records for this station are not official NWS values.
T = Trace of Precipitation, MM = Missing Value Source: NWS Daily Summary

Daily Weather History Graph

Daily Weather History Graph

Search for Another Location

Airport:

Trip Planner

Search our weather history database for the weather conditions in past years. The results will help you decide how hot, cold, wet, or windy it might be!

Date:

Astronomy

Oct. 08, 2012 Rise Set
Actual Time 7:08 AM MDT 6:36 PM MDT
Civil Twilight 6:41 AM MDT 7:03 PM MDT
Nautical Twilight 6:10 AM MDT 7:33 PM MDT
Astronomical Twilight 5:40 AM MDT 8:04 PM MDT
Moon No Moon Rise 2:23 PM MDT (10/8)
Length of Visible Light 12h 21m
Length of Day
11h 28m
Last Quarter, 46% of the Moon is Illuminated
Oct 8
Last Quarter
Oct 15
New
Oct 21
First Quarter
Oct 29
Full
Nov 6
Last Quarter

Hourly Weather History & Observations

Time (MDT) Temp. Windchill Dew Point Humidity Pressure Visibility Wind Dir Wind Speed Gust Speed Precip Events Conditions
12:02 AM 26.6 °F - -0.4 °F 31% 30.39 in - North - - N/A   Clear
12:21 AM 26.6 °F - -0.4 °F 31% 30.39 in - North - - N/A   Clear
12:42 AM 26.6 °F - -0.4 °F 31% 30.39 in - North - - N/A   Clear
1:02 AM 26.6 °F - -0.4 °F 31% 30.39 in - North - - N/A   Clear
1:23 AM 26.6 °F - -0.4 °F 31% 30.39 in - North - - N/A   Clear
1:42 AM 26.6 °F - -0.4 °F 31% 30.39 in - North - - N/A   Clear
2:13 AM 26.6 °F - 1.4 °F 34% 30.39 in - North - - N/A   Clear
2:33 AM 26.6 °F - -0.4 °F 31% 30.39 in - North - - N/A   Clear
2:53 AM 24.8 °F - -0.4 °F 34% 30.38 in - North - - N/A   Clear
3:13 AM 26.6 °F - -0.4 °F 31% 30.37 in - North - - N/A   Clear
3:33 AM 26.6 °F - -0.4 °F 31% 30.37 in - North - - N/A   Clear
3:53 AM 26.6 °F - -0.4 °F 31% 30.37 in - North - - N/A   Clear
4:13 AM 24.8 °F - -0.4 °F 34% 30.36 in - North - - N/A   Clear
4:33 AM 24.8 °F - -0.4 °F 34% 30.37 in - North - - N/A   Clear
4:53 AM 24.8 °F - -0.4 °F 34% 30.37 in - North - - N/A   Clear
5:13 AM 24.8 °F - -0.4 °F 34% 30.36 in - North - - N/A   Clear
5:33 AM 23.0 °F - -0.4 °F 36% 30.36 in - North - - N/A   Clear
5:53 AM 24.8 °F - -0.4 °F 34% 30.36 in - North - - N/A   Clear
6:13 AM 24.8 °F - -0.4 °F 34% 30.36 in - North - - N/A   Clear
6:33 AM 24.8 °F 6.6 °F -0.4 °F 34% 30.36 in - West 35.7 mph - N/A   Clear
6:53 AM 26.6 °F 8.9 °F -0.4 °F 31% 30.36 in - West 36.8 mph - N/A   Clear
7:13 AM 26.6 °F 8.9 °F -2.2 °F 29% 30.36 in - West 36.8 mph - N/A   Clear
7:33 AM 26.6 °F - -2.2 °F 29% 30.37 in - North - - N/A   Clear
7:53 AM 26.6 °F 8.5 °F -2.2 °F 29% 30.37 in - West 39.1 mph - N/A   Clear
8:13 AM 28.4 °F 10.8 °F -2.2 °F 27% 30.37 in - West 40.3 mph - N/A   Clear
8:33 AM 28.4 °F 11.6 °F -2.2 °F 27% 30.38 in - West 35.7 mph - N/A   Clear
8:53 AM 28.4 °F 12.0 °F -2.2 °F 27% 30.39 in - West 33.4 mph - N/A   Clear
9:13 AM 28.4 °F 11.6 °F -4.0 °F 25% 30.39 in - West 35.7 mph - N/A   Clear
9:33 AM 30.2 °F 14.1 °F -4.0 °F 23% 30.39 in - West 35.7 mph - N/A   Clear
9:53 AM 30.2 °F 15.2 °F -4.0 °F 23% 30.40 in - West 29.9 mph 40.3 mph N/A   Clear
10:13 AM 32.0 °F 15.8 °F -4.0 °F 21% 30.38 in - West 40.3 mph 43.7 mph N/A   Clear
10:33 AM 32.0 °F 16.0 °F -4.0 °F 21% 30.39 in - West 39.1 mph 44.9 mph N/A   Clear
10:53 AM 32.0 °F 16.2 °F -4.0 °F 21% 30.38 in - West 38.0 mph 44.9 mph N/A   Clear
11:13 AM 32.0 °F 17.6 °F -4.0 °F 21% 30.39 in - West 29.9 mph 40.3 mph N/A   Clear
11:33 AM 33.8 °F 20.5 °F -5.8 °F 18% 30.39 in - WSW 27.6 mph 39.1 mph N/A   Clear
11:53 AM 33.8 °F 20.1 °F -5.8 °F 18% 30.39 in - WSW 29.9 mph 41.4 mph N/A   Clear
12:13 PM 33.8 °F 20.1 °F -7.6 °F 17% 30.39 in - WSW 29.9 mph 40.3 mph N/A   Clear
12:33 PM 35.6 °F 22.1 °F -5.8 °F 17% 30.38 in - SW 32.2 mph 43.7 mph N/A   Clear
12:53 PM 37.4 °F 25.2 °F -4.0 °F 17% 30.38 in - WSW 28.8 mph 42.6 mph N/A   Clear
1:13 PM 37.4 °F 23.8 °F -5.8 °F 16% 30.37 in - West 36.8 mph 43.7 mph N/A   Clear
1:33 PM 37.4 °F 23.5 °F -5.8 °F 16% 30.37 in - West 39.1 mph 49.5 mph N/A   Clear
1:53 PM 39.2 °F 26.6 °F -4.0 °F 16% 30.37 in - West 34.5 mph 43.7 mph N/A   Clear
2:13 PM 37.4 °F 25.0 °F -4.0 °F 17% 30.36 in - West 29.9 mph 42.6 mph N/A   Clear
2:33 PM 41.0 °F 29.7 °F -4.0 °F 15% 30.36 in - WSW 31.1 mph 40.3 mph N/A   Clear
2:53 PM 41.0 °F 28.6 °F -4.0 °F 15% 30.34 in - West 38.0 mph 44.9 mph N/A   Clear
3:13 PM 39.2 °F 26.5 °F -5.8 °F 15% 30.35 in - West 35.7 mph 47.2 mph N/A   Clear
3:33 PM 41.0 °F 29.3 °F -5.8 °F 14% 30.35 in - WSW 33.4 mph 48.3 mph N/A   Clear
3:53 PM 42.8 °F 31.8 °F -5.8 °F 13% 30.34 in - West 33.4 mph 52.9 mph N/A   Clear
4:13 PM 41.0 °F 28.5 °F -5.8 °F 14% 30.34 in - West 39.1 mph 55.2 mph N/A   Clear
4:33 PM 42.8 °F 32.3 °F -5.8 °F 13% 30.35 in - WSW 29.9 mph 48.3 mph N/A   Clear
4:53 PM 41.0 °F 28.6 °F -5.8 °F 14% 30.35 in - West 38.0 mph 47.2 mph N/A   Clear
5:13 PM 41.0 °F 29.0 °F -7.6 °F 13% 30.35 in - WSW 35.7 mph 47.2 mph N/A   Clear
5:33 PM 41.0 °F 29.0 °F -5.8 °F 14% 30.35 in - West 35.7 mph 47.2 mph N/A   Clear
5:53 PM 39.2 °F 26.5 °F -5.8 °F 15% 30.35 in - West 35.7 mph 44.9 mph N/A   Clear
6:13 PM 37.4 °F 24.2 °F -5.8 °F 16% 30.36 in - West 34.5 mph 49.5 mph N/A   Clear
6:33 PM 35.6 °F 20.8 °F -4.0 °F 18% 30.36 in - West 40.3 mph 47.2 mph N/A   Clear
6:53 PM 33.8 °F 18.1 °F -4.0 °F 20% 30.36 in - West 41.4 mph 51.8 mph N/A   Clear
7:13 PM 33.8 °F 18.5 °F -4.0 °F 20% 30.36 in - West 39.1 mph 47.2 mph N/A   Clear
7:33 PM 33.8 °F 18.6 °F -4.0 °F 20% 30.36 in - West 38.0 mph 44.9 mph N/A   Clear
7:53 PM 33.8 °F 19.0 °F -4.0 °F 20% 30.37 in - West 35.7 mph 47.2 mph N/A   Clear
8:13 PM 32.0 °F 16.3 °F -2.2 °F 23% 30.36 in - West 36.8 mph 43.7 mph N/A   Clear
8:33 PM 32.0 °F 16.2 °F -0.4 °F 25% 30.36 in - West 38.0 mph 48.3 mph N/A   Clear
8:53 PM 32.0 °F 16.2 °F -0.4 °F 25% 30.36 in - West 38.0 mph 46.0 mph N/A   Clear
9:13 PM 32.0 °F 16.2 °F 1.4 °F 27% 30.36 in - West 38.0 mph 50.6 mph N/A   Clear
9:53 PM 32.0 °F 16.2 °F 3.2 °F 30% 30.37 in - West 38.0 mph 46.0 mph N/A   Clear
10:13 PM 32.0 °F 16.2 °F 3.2 °F 30% 30.36 in - West 38.0 mph 43.7 mph N/A   Clear
10:33 PM 32.0 °F 16.3 °F 3.2 °F 30% 30.37 in - West 36.8 mph 47.2 mph N/A   Clear
11:13 PM 32.0 °F 16.5 °F 3.2 °F 30% 30.36 in - West 35.7 mph 41.4 mph N/A   Clear
11:33 PM 32.0 °F 16.5 °F 3.2 °F 30% 30.35 in - West 35.7 mph 40.3 mph N/A   Clear
11:53 PM 32.0 °F 16.5 °F 3.2 °F 30% 30.35 in - West 35.7 mph - N/A   Clear